Regional Weather Roundup
Issued by NWS

Home | Current Version | Previous Version | Text Only | Print | Product List | Glossary On
Versions: 1 2 3 4 5 6 7 8 9 10 11 12 13 14 15 16 17 18 19 20 21 22 23 24 25 26 27 28 29 30 31 32 33 34 35 36 37 38 39 40 41 42 43 44 45 46 47 48 49 50
000
ASUS42 KTBW 291310
RWRFL
FLORIDA REGIONAL WEATHER ROUNDUP
NATIONAL WEATHER SERVICE TAMPA BAY RUSKIN FL
800 AM EST THU JAN 29 2015

NOTE: "FAIR" INDICATES FEW OR NO CLOUDS BELOW 12,000 FEET WITH NO
SIGNIFICANT WEATHER AND/OR OBSTRUCTIONS TO VISIBILITY.


FLZ001>010-012>015-112-114-115-291400-
PANHANDLE FLORIDA

CITY           SKY/WX    TMP DP  RH WIND       PRES   REMARKS
PENSACOLA      CLEAR     46  42  86 CALM      30.29R
PENSACOLA NAS  PTCLDY    44  43  96 N3        30.29R
MILTON NAS     PTCLDY    40  35  83 E6        30.29R WCI  36
CRESTVIEW      CLEAR     31  31 100 CALM      30.33R FOG
VALPARAISO     PTCLDY    46  40  80 E5        30.31R WCI  44
MARY ESTHER    CLEAR     43  38  82 N5        30.30R WCI  40
TRI COUNTY     FAIR      33  32  96 CALM      30.34R FOG
PANAMA CITY    FAIR      38  34  85 E3        30.32R
TYNDALL AFB    CLEAR     42  39  89 E2        30.34R
APALACHICOLA   CLEAR     44  39  82 E6        30.33R WCI  41

STATION/POSITION SKY/WX   TEMP    WIND        PRES    WAVE   SWELL
                          AIR SEA DIR/SP/G            HT/PER HT/PER
                          (F)     (DEG/KT/KT) (MB)    (FT/S) (FT/S)
30.1N   87.6W              62 62  150/ 12/ 14 1024.9R   2/ 4
29.2N   88.2W              64 68  150/  8/ 10 1025.6R   2/ 4   2/ 4
28.7N   86.0W              62 69  130/ 12/ 16 1026.0R   2/ 5
PANAMA CITY BEAC           45 58   70/ 12/ 15 1026.3R
CAPE SAN BLAS    NOT AVBL
TOWER C                    55     120/ 11/ 13 1026.7R
28.5N   84.5W              58 67  120/ 14/ 17 1026.0R   3/ 5

$$
FLZ011-016>038-118-127-128-134-139-239-291400-
NORTH FLORIDA

CITY           SKY/WX    TMP DP  RH WIND       PRES   REMARKS
MARIANNA       CLEAR     34  33  96 CALM      30.34R
TALLAHASSEE    PTCLDY    32  27  81 CALM      30.35S
PERRY          CLEAR     33  32  97 CALM      30.37R
CROSS CITY       N/A     30  28  92 CALM      30.35R
LAKE CITY      FAIR      32  32 100 CALM      30.34R FOG
GAINESVILLE    PTCLDY    33  32  96 NW3       30.34R
MAYPORT NAS    MOCLDY    46  43  89 W6        30.33R WCI  43
JACKSONVILLE   MOCLDY    36  34  92 N3        30.34R
JAX NAS        MOCLDY    43  35  73 NW6       30.34S WCI  39
JAX CRAIG      CLEAR     39  36  89 CALM      30.34R
JAX CECIL      CLEAR     30  28  93 CALM      30.34S
FERNANDINA BEA FAIR      45  43  93 CALM      30.33R
ST AUGUSTINE   PTCLDY    43  40  89 MISG      30.33S

STATION/POSITION SKY/WX   TEMP    WIND        PRES    WAVE   SWELL
                          AIR SEA DIR/SP/G            HT/PER HT/PER
                          (F)     (DEG/KT/KT) (MB)    (FT/S) (FT/S)
SHELL POINT                44      50/  3/  6   N/A
KEATON BEACH               39      60/  6/  7 1027.9R
CEDAR KEY                  44      50/  6/  7 1027.6R
FERNANDINA                 45 55  320/  4/  5 1026.9R
MAYPORT                    46 57  300/  3/  5 1027.0S
31.4N   80.9W              52 53   40/  8/ 10 1027.8R   3/11   2/11
ST AUGUSTINE               47     300/  5/  6 1027.1R

$$
FLZ040-043>046-052-053-057-058-063-144-291400-
INTERIOR CENTRAL FLORIDA

CITY           SKY/WX    TMP DP  RH WIND       PRES   REMARKS
OCALA          CLEAR     36  32  87 CALM      30.33R
THE VILLAGES     N/A     41  37  87 CALM      30.23R
LEESBURG       CLEAR     43  38  82 N6        30.33R WCI  39
SANFORD        CLEAR     45  41  86 NW6       30.32R WCI  42
ORLANDO EXEC   CLEAR     47  40  76 NW6       30.31R WCI  44
ORLANDO INTL   MOCLDY    48  43  82 N6        30.31R
KISSIMMEE      CLEAR     45  43  93 CALM      30.31R
WINTER HAVEN   CLEAR     48  42  80 N6        30.32R
LAKELAND       CLEAR     41  39  93 CALM      30.32R
BARTOW         MOCLDY    43  39  87 NW3       30.31R
OKEECHOBEE     MOCLDY    43  43 100 N3        30.29R

$$
FLZ041-047-054-059-064-141-147-291400-
EAST CENTRAL FLORIDA

CITY           SKY/WX    TMP DP  RH WIND       PRES   REMARKS
ORMOND BEACH   PTCLDY    41  39  93 W6        30.32R WCI  37
DAYTONA BEACH  MOCLDY    44  40  85 NW5       30.32R WCI  42
DELAND         SUNNY    N/A N/A N/A NW6       30.33R
NEW SMYRNA BEA CLEAR     43  41  93 NW6       30.32R WCI  39
JFK SPACE CTR  CLEAR     46  44  91 NW5       30.29R WCI  44
TITUSVILLE     CLEAR     43  43 100 VRB7      30.30R WCI  39
CAPE CANAVERAL CLEAR     49  48  93 NW5       30.28R
PATRICK AFB    PTCLDY    51  48  90 NW7       30.28R
MELBOURNE      PTCLDY    45  43  93 W5        30.28R WCI  43
VERO BEACH     MOCLDY    47  44  90 W8        30.28R WCI  43
FT PIERCE      PTCLDY    45  43  93 W6        30.27R WCI  42
STUART         PTCLDY    63  46  55 E6        30.26R

STATION/POSITION SKY/WX   TEMP    WIND        PRES    WAVE   SWELL
                          AIR SEA DIR/SP/G            HT/PER HT/PER
                          (F)     (DEG/KT/KT) (MB)    (FT/S) (FT/S)
28.5N   80.2W              63 69   70/ 14/ 19 1024.6R
28.9N   78.5W              63 75   60/ 10/ 14 1025.5R   6/12   5/12
TRIDENT PIER               50 62  320/  4/  6 1025.1R
28.4N   80.5W                 62                N/A     3/13   2/13
27.6N   80.2W                 69                N/A     5/13   2/13

$$
FLZ050-056-061-142-242-148-248-149-249-151-251-155-255-
160-260-291400-
WEST CENTRAL FLORIDA

CITY           SKY/WX    TMP DP  RH WIND       PRES   REMARKS
CRYSTAL RIVER  FAIR      36  32  87 CALM      30.34R
INVERNESS      FAIR      34  34 100 CALM      30.35R
BROOKSVILLE    PTCLDY    35  34  96 CALM      30.34R
ZEPHYRHILLS    FAIR      36  34  93 N5        30.34R WCI  32
CLEARWATER     PTCLDY    50  42  74 NE6       30.32R
TAMPA INTL     MOCLDY    46  37  71 NE7       30.32R WCI  42
TAMPA EXEC     PTCLDY    43  37  81 CALM      30.33R
PLANT CITY       N/A    N/A N/A N/A MISG        N/A
MACDILL AFB    PTCLDY    44  43  95 E10       30.31R WCI  39
PETER O KNIGHT PTCLDY    48  41  76 NE10      30.32S WCI  44
ST PETERSBURG  PTCLDY    51  43  74 NE9       30.30R
SARASOTA       PTCLDY    46  40  79 NE8       30.29R WCI  42
VENICE         FAIR      48  43  81 NE13      30.30R WCI  43

STATION/POSITION SKY/WX   TEMP    WIND        PRES    WAVE   SWELL
                          AIR SEA DIR/SP/G            HT/PER HT/PER
                          (F)     (DEG/KT/KT) (MB)    (FT/S) (FT/S)
CEDAR KEY                  44      50/  6/  7 1027.6R
28.5N   84.5W              58 67  120/ 14/ 17 1026.0R   3/ 5
27.3N   84.3W                 72                N/A     4/ 5
CLEARWATER BEACH           48 59   40/  8/ 11 1025.9S
MIDDLE TAMPA BAY           53      50/ 12/ 14 1026.4R
VENICE                     49 62   40/ 11/ 15 1025.5R

$$
FLZ066-069-070-075>078-162-262-165-265-291400-
SOUTHWEST FLORIDA AND KEYS

CITY           SKY/WX    TMP DP  RH WIND       PRES   REMARKS
PUNTA GORDA    CLEAR     44  41  89 NE7       30.30R WCI  40
FT MYERS       CLEAR     48  43  82 NE9       30.26S WCI  44
SOUTHWEST INTL CLEAR     47  42  83 NE8       30.27R WCI  43
NAPLES         CLEAR     50  44  80 NE12      30.25R
MARCO ISLAND   MOSUNNY   48  43  81 NE13      30.25R WCI  43
IMMOKALEE      SUNNY    N/A N/A N/A CALM      30.27R
MARATHON       SUNNY     59  55  87 NE10      30.21R
KEY WEST NAS   PTCLDY    61  55  81 NE13      30.21R
KEY WEST INTL  PTCLDY    61  56  83 NE9       30.22R

STATION/POSITION SKY/WX   TEMP    WIND        PRES    WAVE   SWELL
                          AIR SEA DIR/SP/G            HT/PER HT/PER
                          (F)     (DEG/KT/KT) (MB)    (FT/S) (FT/S)
VENICE                     49 62   40/ 11/ 15 1025.5R
NAPLES                     51 72   40/  6/ 11 1024.7R
26.0N   85.6W              65 72   90/ 14/ 17 1024.1R   3/ 5
DRY TORTUGAS               63      60/ 21/ 23 1022.6R
NW FL BAY                  56      40/ 13/ 16 1022.7R
SAND KEY                   63      40/ 20/ 23 1022.7R
SOMBRERO KEY               60      30/ 15/ 17 1023.1R
LONG KEY                   58 63   30/ 14/ 17 1023.8R
MOLASSES REEF              60 74  360/ 14/ 16 1022.8R

$$
FLZ067-068-071>074-168-172>174-291400-
SOUTHEAST FLORIDA

CITY           SKY/WX    TMP DP  RH WIND       PRES   REMARKS
W PALM BEACH   PTSUNNY   64  45  49 NE9       30.24R
FT LAUDER-EXEC MOSUNNY   55  50  83 NW3       30.24R
FT LAUDERDALE  PTSUNNY   55  50  83 NW6       30.23R
POMPANO BEACH  PTSUNNY   67  49  52 E13       30.24R
PEMBROKE PINES MOSUNNY   53  49  86 NW6       30.25R
OPA LOCKA      SUNNY     55  49  80 N3        30.24R
MIAMI          MOSUNNY   57  49  74 N5        30.24R
WEST KENDALL   PTSUNNY   55  49  80 N7        30.24R
HOMESTEAD      MOSUNNY   53  49  87 N7        30.23R

STATION/POSITION SKY/WX   TEMP    WIND        PRES    WAVE   SWELL
                          AIR SEA DIR/SP/G            HT/PER HT/PER
                          (F)     (DEG/KT/KT) (MB)    (FT/S) (FT/S)
PORT EVERGLADES            67      60/ 13/ 18 1023.4
VIRGINIA KEY               66 66   60/ 14/ 18 1023.6R
LAKE WORTH                 65 73   40/ 14/ 17 1023.7R


USA.gov is the U.S. government's official web portal to all federal, state and local government web resources and services.